Flag for U.S.A. Weather past 2 weeks in Houston, Texas, U.S.A.

Now
72 °F

Strong thunderstorms. Fog.


Feels Like: 69 °F
Forecast: 74 / 87 °F
Wind: 23 mph from Northwest

Location: Houston Hobby Airport

Current Time: May 30, 2015 at 6:53:26 PM

Latest Report: May 30, 2015 at 5:53 PM


Visibility: 1 mi

Pressure: 30.01 "Hg

Humidity: 91%

Dew point: 69 °F

Location of HoustonLocation

Historic Weather in Houston — Graph

°F

Houston temperature yesterday

Maximum temperature yesterday: 87 °F (at 4:53 PM)
Minimum temperature yesterday: 71 °F (at 7:53 AM)
Average temperature yesterday: 78 °F

Past Weeks' High & Low Weather Summary

 TemperatureHumidityPressure
High89 °F (May 30, 1:53 PM)100% (May 30, 6:53 AM)30.16 "Hg (May 30, 6:53 AM)
Low66 °F (May 25, 11:53 PM)48% (May 29, 4:53 PM)29.84 "Hg (May 25, 5:53 PM)
Average78 °F82%30.01 "Hg
* Reported May 15 4:53 PM — May 30 4:53 PM, Houston, Weather by CustomWeather, © 2015

Note: Actual official high and low records may vary slightly from our data, if they occured in-between our weather recording intervals... More about our weather records

Advertising

Houston weather history for previous 24 hours

 ConditionsComfort  
Time TempWeatherWind HumidityBarometerVisibility
4:53 PM
Sat, May 30
85 °FThunderstorms. Partly sunny.13 mph68%29.93 "Hg10 mi
3:53 PM88 °FThunderstorms. Partly sunny.14 mph63%29.96 "Hg10 mi
2:53 PM89 °FPartly sunny.9 mph52%29.99 "Hg10 mi
1:53 PM89 °FScattered clouds.6 mph55%29.99 "Hg10 mi
12:53 PM87 °FBroken clouds.No wind61%30.01 "Hg10 mi
11:53 AM88 °FBroken clouds.No wind59%30.04 "Hg10 mi
10:53 AM84 °FBroken clouds.5 mph67%30.06 "Hg10 mi
9:53 AM82 °FBroken clouds.5 mph72%30.06 "Hg10 mi
8:53 AM80 °FBroken clouds.5 mph81%30.04 "Hg10 mi
7:53 AM78 °FScattered clouds.3 mph90%30.03 "Hg10 mi
6:53 AM73 °FPassing clouds.No wind100%30.02 "Hg9 mi
5:53 AM75 °FFog.No wind94%30.00 "Hg8 mi
4:53 AM75 °FPassing clouds.No wind96%29.99 "Hg9 mi
3:53 AM75 °FPassing clouds.No wind96%29.98 "Hg10 mi
2:53 AM76 °FPassing clouds.No wind94%29.99 "Hg10 mi
1:53 AM76 °FPassing clouds.3 mph94%30.00 "Hg10 mi
12:53 AM76 °FPassing clouds.5 mph94%30.01 "Hg10 mi
11:53 PM
Fri, May 29
76 °FPassing clouds.3 mph91%30.01 "Hg10 mi
10:53 PM76 °FPassing clouds.6 mph91%30.00 "Hg10 mi
9:53 PM77 °FPassing clouds.6 mph85%29.99 "Hg10 mi
8:53 PM79 °FScattered clouds.7 mph77%29.98 "Hg10 mi
7:53 PM82 °FScattered clouds.6 mph60%29.96 "Hg10 mi
6:53 PM84 °FScattered clouds.9 mph55%29.96 "Hg10 mi
Weather by CustomWeather, © 2015

See weather overviewHow to use our weather pages